EW3350 Weather Reports


Display with metric or nautical units.
time (UTC)temp
F
wind
direction
speed
MPH
gust
MPH
rain 1hr
in
rain 24hr
in
rain mn
in
humidity
%
barometer
mb
20190120053504 54 317 1.0 11.0 0.00 0.22 0.22 62 1017.0
20190120053005 54 318 1.0 11.0 0.00 0.22 0.22 63 1017.0
20190120052505 54 319 1.0 11.0 0.00 0.22 0.22 63 1017.0
20190120052005 54 275 2.0 8.0 0.00 0.22 0.22 62 1017.1
20190120051505 54 296 2.0 16.0 0.00 0.22 0.22 61 1017.1
20190120051006 54 300 3.0 16.0 0.00 0.22 0.22 62 1017.1
20190120050506 54 322 3.0 14.0 0.00 0.22 0.22 63 1017.1
20190120050005 54 323 2.0 15.0 0.00 0.22 0.22 62 1017.3
20190120045505 53 321 0.0 15.0 0.00 0.22 0.22 61 1017.4
20190120045005 54 0 0.0 12.0 0.00 0.22 0.22 63 1017.4
20190120044505 54 0 0.0 0.0 0.00 0.22 0.22 64 1017.4
20190120044005 54 0 0.0 1.0 0.00 0.22 0.22 67 1017.5
20190120043505 54 0 0.0 1.0 0.00 0.22 0.22 68 1017.4
20190120043005 54 0 0.0 1.0 0.00 0.22 0.22 68 1017.4
20190120042508 54 0 0.0 8.0 0.00 0.22 0.22 67 1017.4
20190120042005 54 0 0.0 8.0 0.00 0.22 0.22 66 1017.3
20190120041505 54 0 0.0 1.0 0.01 0.22 0.22 65 1017.3
20190120041005 54 0 0.0 1.0 0.01 0.22 0.22 63 1017.3
20190120040505 54 0 0.0 1.0 0.01 0.22 0.22 64 1017.3
20190120040005 54 0 0.0 1.0 0.01 0.22 0.22 64 1017.3
20190120035505 54 0 0.0 6.0 0.01 0.22 0.22 64 1017.4
20190120035005 54 0 0.0 9.0 0.01 0.22 0.22 65 1017.5
20190120034505 54 0 0.0 9.0 0.01 0.22 0.22 65 1017.7
20190120034006 54 0 0.0 5.0 0.01 0.22 0.22 62 1017.8
20190120033505 54 339 0.0 3.0 0.01 0.22 0.22 64 1017.8
20190120033008 54 323 1.0 3.0 0.01 0.22 0.22 65 1017.9
20190120032505 54 332 2.0 13.0 0.01 0.22 0.22 64 1018.0
20190120032005 54 333 1.0 13.0 0.01 0.22 0.22 64 1017.9
20190120031506 54 340 1.0 13.0 0.00 0.21 0.21 65 1018.0
20190120031004 54 339 1.0 13.0 0.00 0.21 0.21 64 1018.0
20190120030505 54 342 2.0 13.0 0.00 0.21 0.21 65 1018.1
20190120030005 54 349 1.0 13.0 0.00 0.21 0.21 65 1018.0
20190120025505 53 349 1.0 17.0 0.00 0.21 0.21 65 1018.1
20190120025004 53 333 0.0 17.0 0.00 0.21 0.21 65 1018.2
20190120024504 53 0 0.0 1.0 0.00 0.21 0.21 66 1018.2
20190120024005 54 0 0.0 1.0 0.00 0.21 0.21 68 1018.3
20190120023505 54 11 1.0 1.0 0.00 0.21 0.21 68 1018.2
20190120023005 54 0 2.0 0.0 0.00 0.21 0.21 68 1018.1
20190120022505 54 348 2.0 14.0 0.00 0.21 0.21 69 1018.1
20190120022005 54 348 1.0 14.0 0.00 0.21 0.21 69 1018.0
20190120021505 54 344 1.0 12.0 0.00 0.21 0.21 70 1018.1
20190120021005 54 344 1.0 12.0 0.00 0.21 0.21 69 1018.2
20190120020506 54 323 1.0 12.0 0.00 0.21 0.21 70 1018.1
20190120020004 53 329 0.0 13.0 0.00 0.21 0.21 68 1018.0
20190120015505 53 344 0.0 13.0 0.00 0.21 0.21 69 1018.0
20190120015005 53 313 0.0 1.0 0.00 0.21 0.21 71 1018.1
20190120014505 53 350 1.0 8.0 0.00 0.21 0.21 71 1018.2
20190120014005 53 344 1.0 18.0 0.00 0.21 0.21 74 1018.1
20190120013504 53 338 1.0 18.0 0.00 0.21 0.21 75 1018.3
20190120013004 53 335 1.0 7.0 0.00 0.21 0.21 77 1018.2
20190120012505 53 348 0.0 11.0 0.00 0.21 0.21 78 1018.1
20190120012005 53 348 0.0 11.0 0.00 0.21 0.21 78 1018.2
20190120011505 53 320 1.0 7.0 0.00 0.21 0.21 79 1018.1
20190120011004 53 343 1.0 12.0 0.00 0.21 0.21 79 1018.1
20190120010505 53 348 0.0 13.0 0.00 0.21 0.21 79 1018.0
20190120010006 53 0 0.0 13.0 0.00 0.21 0.21 79 1018.1
20190120005505 54 0 0.0 0.0 0.00 0.21 0.21 78 1017.9
20190120005005 54 0 0.0 1.0 0.00 0.21 0.21 79 1017.7
20190120004505 53 0 0.0 1.0 0.00 0.21 0.21 80 1017.6
20190120004005 53 0 0.0 0.0 0.00 0.21 0.21 81 1017.4
20190120003505 53 0 0.0 0.0 0.00 0.21 0.21 81 1017.3
20190120003006 53 0 0.0 6.0 0.00 0.21 0.21 81 1017.2
20190120002504 53 0 0.0 6.0 0.00 0.21 0.21 82 1017.2
20190120002007 53 0 0.0 6.0 0.00 0.21 0.21 82 1017.3
20190120001505 53 0 0.0 4.0 0.00 0.21 0.21 82 1017.3
20190120001005 53 0 0.0 4.0 0.00 0.21 0.21 82 1017.1
20190120000505 53 0 0.0 1.0 0.00 0.21 0.21 83 1017.2
20190120000006 53 0 0.0 0.0 0.00 0.21 0.21 84 1017.1
20190119235505 53 0 0.0 1.0 0.00 0.21 0.21 84 1017.0
20190119235006 53 0 0.0 1.0 0.00 0.21 0.21 84 1017.0
20190119234505 53 0 0.0 0.0 0.00 0.21 0.21 84 1016.9
20190119234006 53 0 0.0 0.0 0.00 0.21 0.21 84 1016.8
20190119233505 53 0 1.0 0.0 0.00 0.21 0.21 84 1016.8
20190119233006 53 316 1.0 8.0 0.00 0.21 0.21 84 1016.7
20190119232505 53 316 0.0 8.0 0.00 0.21 0.21 85 1016.5
20190119232005 53 0 0.0 0.0 0.00 0.21 0.21 85 1016.5
20190119231505 53 0 0.0 0.0 0.00 0.21 0.21 85 1016.6
20190119231005 53 0 0.0 1.0 0.00 0.21 0.21 84 1016.6
20190119230505 53 0 0.0 1.0 0.00 0.21 0.21 84 1016.6
20190119230005 53 0 0.0 0.0 0.00 0.21 0.21 85 1016.5
20190119225505 53 0 0.0 1.0 0.01 0.21 0.21 84 1016.4
20190119225005 53 0 0.0 9.0 0.02 0.21 0.21 84 1016.3
20190119224505 53 0 0.0 9.0 0.02 0.21 0.21 84 1016.2
20190119224005 53 0 0.0 0.0 0.03 0.21 0.21 85 1016.1
20190119223506 53 0 0.0 0.0 0.03 0.21 0.21 85 1016.1
20190119223005 53 0 0.0 0.0 0.03 0.21 0.21 87 1016.2
20190119222505 53 0 0.0 0.0 0.04 0.21 0.21 88 1016.1
20190119222005 53 0 0.0 0.0 0.04 0.21 0.21 88 1016.1
20190119221506 53 0 0.0 1.0 0.04 0.21 0.21 88 1016.0
20190119221005 53 0 0.0 5.0 0.05 0.21 0.21 89 1015.9
20190119220505 53 270 0.0 5.0 0.06 0.21 0.21 89 1016.0
20190119220005 53 240 1.0 1.0 0.06 0.21 0.21 90 1015.9
20190119215505 53 267 2.0 12.0 0.05 0.20 0.20 90 1015.7
20190119215006 54 272 1.0 12.0 0.05 0.19 0.19 90 1015.7
20190119214505 54 275 0.0 11.0 0.05 0.19 0.19 90 1015.7
20190119214004 54 0 0.0 0.0 0.05 0.18 0.18 90 1015.6
20190119213505 54 0 0.0 0.0 0.05 0.18 0.18 90 1015.3
20190119213005 54 0 0.0 0.0 0.06 0.18 0.18 90 1015.2
20190119212506 54 297 1.0 1.0 0.06 0.17 0.17 90 1015.2
20190119212005 54 268 1.0 8.0 0.06 0.17 0.17 90 1015.2
20190119211504 54 266 0.0 8.0 0.07 0.16 0.16 90 1015.1
20190119211005 54 0 0.0 6.0 0.07 0.16 0.16 91 1015.1
20190119210505 54 0 0.0 0.0 0.09 0.15 0.15 91 1015.1
20190119210005 54 264 1.0 1.0 0.11 0.15 0.15 91 1015.1
20190119205505 54 294 2.0 7.0 0.13 0.15 0.15 91 1015.1
20190119205005 54 275 3.0 12.0 0.13 0.14 0.14 91 1015.0
20190119204506 55 269 2.0 12.0 0.13 0.14 0.14 91 1014.9
20190119204005 55 271 0.0 11.0 0.12 0.13 0.13 91 1014.8
20190119203506 55 0 0.0 4.0 0.12 0.13 0.13 91 1014.7
20190119203006 55 313 0.0 4.0 0.11 0.12 0.12 91 1014.5
20190119202505 55 232 1.0 2.0 0.10 0.11 0.11 90 1014.5
20190119202005 56 275 1.0 9.0 0.10 0.11 0.11 90 1014.4
20190119201505 56 275 0.0 9.0 0.08 0.09 0.09 89 1014.5
20190119201006 56 0 0.0 2.0 0.08 0.09 0.09 87 1014.4
20190119200505 57 0 0.0 8.0 0.05 0.06 0.06 85 1014.3
20190119200006 57 271 0.0 8.0 0.04 0.04 0.04 83 1014.2
20190119195506 58 261 1.0 7.0 0.02 0.02 0.02 81 1014.1
20190119195006 58 237 1.0 11.0 0.01 0.01 0.01 79 1013.9
20190119194506 58 244 2.0 11.0 0.01 0.01 0.01 79 1013.8
20190119194005 58 252 1.0 13.0 0.01 0.01 0.01 79 1013.8
20190119193505 58 252 0.0 13.0 0.01 0.01 0.01 79 1013.8
20190119193005 58 0 0.0 7.0 0.01 0.01 0.01 79 1013.9
20190119192505 58 0 0.0 0.0 0.01 0.01 0.01 80 1013.8
20190119192005 58 0 0.0 0.0 0.01 0.01 0.01 80 1014.1
20190119191508 58 0 0.0 7.0 0.01 0.01 0.01 81 1014.3
20190119191005 57 0 0.0 12.0 0.01 0.01 0.01 80 1014.4
20190119190505 57 0 0.0 12.0 0.01 0.01 0.01 81 1014.4
20190119190007 57 0 0.0 0.0 0.00 0.00 0.00 79 1014.4
20190119185504 57 0 0.0 0.0 0.00 0.00 0.00 79 1014.3
20190119185005 57 0 0.0 0.0 0.00 0.00 0.00 78 1014.5
20190119184505 57 0 0.0 0.0 0.00 0.00 0.00 78 1014.5
20190119184005 57 200 0.0 2.0 0.00 0.00 0.00 78 1014.7
20190119183505 57 217 0.0 5.0 0.00 0.00 0.00 78 1014.7
20190119183005 57 0 0.0 6.0 0.00 0.00 0.00 78 1014.9
20190119182505 56 0 0.0 6.0 0.00 0.00 0.00 78 1015.1
20190119182005 56 0 0.0 0.0 0.00 0.00 0.00 78 1015.0
20190119181505 57 0 0.0 0.0 0.00 0.00 0.00 78 1015.0
20190119181005 57 218 0.0 4.0 0.00 0.00 0.00 78 1015.0
20190119180505 57 209 0.0 4.0 0.00 0.00 0.00 78 1015.1
20190119180008 57 0 0.0 4.0 0.00 0.00 0.00 77 1015.1
20190119175505 57 0 0.0 4.0 0.00 0.00 0.00 77 1015.1
20190119175005 56 0 0.0 3.0 0.00 0.00 0.00 77 1015.0
20190119174505 56 0 0.0 0.0 0.00 0.00 0.00 77 1015.1
20190119174005 56 0 0.0 0.0 0.00 0.00 0.00 77 1015.2
20190119173505 56 0 0.0 0.0 0.00 0.00 0.00 77 1015.3
20190119173004 56 0 0.0 0.0 0.00 0.00 0.00 77 1015.4
20190119172505 56 0 0.0 0.0 0.00 0.00 0.00 77 1015.4
20190119172005 56 0 0.0 0.0 0.00 0.00 0.00 77 1015.5
20190119171505 56 0 0.0 0.0 0.00 0.00 0.00 77 1015.5
20190119171006 56 0 0.0 0.0 0.00 0.00 0.00 77 1015.5
20190119170504 56 0 0.0 0.0 0.00 0.00 0.00 78 1015.7
20190119170005 56 0 0.0 0.0 0.00 0.00 0.00 78 1015.7
20190119165505 56 0 0.0 0.0 0.00 0.00 0.00 78 1015.7
20190119165005 56 0 0.0 0.0 0.00 0.00 0.00 78 1015.7
20190119164505 56 0 0.0 0.0 0.00 0.00 0.00 77 1015.8
20190119164006 56 0 0.0 0.0 0.00 0.00 0.00 77 1015.9
20190119163504 56 0 0.0 0.0 0.00 0.00 0.00 77 1016.0
20190119163005 56 0 0.0 0.0 0.00 0.00 0.00 77 1016.1
20190119162505 56 0 0.0 0.0 0.00 0.00 0.00 77 1016.1
20190119162005 56 0 0.0 0.0 0.00 0.00 0.00 77 1016.2
20190119161505 56 0 0.0 0.0 0.00 0.00 0.00 77 1016.3
20190119161004 56 0 0.0 0.0 0.00 0.00 0.00 77 1016.3
20190119160505 55 0 0.0 0.0 0.00 0.00 0.00 76 1016.3
20190119160005 55 0 0.0 0.0 0.00 0.00 0.00 76 1016.2
20190119155505 55 0 0.0 0.0 0.00 0.00 0.00 76 1016.4
20190119155004 55 0 0.0 0.0 0.00 0.00 0.00 76 1016.4
20190119154505 55 0 0.0 0.0 0.00 0.00 0.00 76 1016.2
20190119154005 55 0 0.0 0.0 0.00 0.00 0.00 75 1016.4
20190119153505 55 0 0.0 0.0 0.00 0.00 0.00 75 1016.6
20190119153005 55 0 0.0 0.0 0.00 0.00 0.00 75 1016.6
20190119152505 55 0 0.0 0.0 0.00 0.00 0.00 74 1016.7
20190119152005 55 0 0.0 0.0 0.00 0.00 0.00 74 1017.0
20190119151504 55 0 0.0 0.0 0.00 0.00 0.00 74 1017.0
20190119151005 55 0 0.0 0.0 0.00 0.00 0.00 74 1017.1
20190119150505 55 0 0.0 4.0 0.00 0.00 0.00 73 1017.0
20190119150007 55 182 0.0 4.0 0.00 0.00 0.00 73 1017.1
20190119145506 55 169 1.0 6.0 0.00 0.00 0.00 72 1017.1
20190119145005 55 166 1.0 10.0 0.00 0.00 0.00 72 1017.2
20190119144505 55 162 0.0 10.0 0.00 0.00 0.00 71 1017.3
20190119144006 55 0 0.0 7.0 0.00 0.00 0.00 70 1017.5
20190119143505 55 0 0.0 0.0 0.00 0.00 0.00 70 1017.5
20190119143005 55 0 0.0 0.0 0.00 0.00 0.00 69 1017.5
20190119142504 54 0 0.0 0.0 0.00 0.00 0.00 68 1017.5
20190119142005 54 0 0.0 0.0 0.00 0.00 0.00 68 1017.5
20190119141505 54 0 0.0 0.0 0.00 0.00 0.00 67 1017.6
20190119141005 54 0 0.0 0.0 0.00 0.00 0.00 67 1017.6
20190119140505 54 0 0.0 0.0 0.00 0.00 0.00 67 1017.5
20190119140005 54 0 0.0 3.0 0.00 0.00 0.00 67 1017.6
20190119135505 54 0 0.0 3.0 0.00 0.00 0.00 67 1017.8
20190119135005 54 0 0.0 2.0 0.00 0.00 0.00 67 1017.8
20190119134506 54 0 0.0 2.0 0.00 0.00 0.00 67 1017.8
20190119134005 53 0 0.0 2.0 0.00 0.00 0.00 68 1018.0
20190119133506 53 0 0.0 1.0 0.00 0.00 0.00 67 1018.0
20190119133005 53 0 0.0 1.0 0.00 0.00 0.00 67 1018.0
20190119132505 53 0 0.0 1.0 0.00 0.00 0.00 67 1018.1
20190119132005 53 0 0.0 0.0 0.00 0.00 0.00 66 1018.1
20190119131505 53 0 0.0 0.0 0.00 0.00 0.00 66 1018.1
20190119131005 53 0 0.0 0.0 0.00 0.00 0.00 66 1018.1
20190119130505 53 0 0.0 0.0 0.00 0.00 0.00 66 1018.0
20190119130005 53 0 0.0 0.0 0.00 0.00 0.00 66 1018.1
20190119125505 53 0 0.0 3.0 0.00 0.00 0.00 66 1018.2
20190119125006 53 0 0.0 3.0 0.00 0.00 0.00 66 1018.1
20190119124507 53 0 0.0 2.0 0.00 0.00 0.00 66 1018.3
20190119124005 53 0 0.0 1.0 0.00 0.00 0.00 66 1018.3
20190119123504 53 0 0.0 1.0 0.00 0.00 0.00 66 1018.4
20190119123005 53 0 0.0 0.0 0.00 0.00 0.00 66 1018.5
20190119122505 53 0 0.0 0.0 0.00 0.00 0.00 66 1018.5
20190119122005 53 0 0.0 2.0 0.00 0.00 0.00 65 1018.6
20190119121505 53 0 0.0 2.0 0.00 0.00 0.00 65 1018.6
20190119121005 53 0 0.0 2.0 0.00 0.00 0.00 65 1018.7
20190119120505 53 0 0.0 1.0 0.00 0.00 0.00 65 1018.8
20190119120007 53 0 0.0 0.0 0.00 0.00 0.00 65 1018.8
20190119115506 53 0 0.0 6.0 0.00 0.00 0.00 64 1018.9
20190119115005 53 0 0.0 6.0 0.00 0.00 0.00 64 1018.9
20190119114505 53 0 0.0 1.0 0.00 0.00 0.00 64 1019.0
20190119114005 53 0 0.0 1.0 0.00 0.00 0.00 64 1019.1
20190119113505 53 0 0.0 1.0 0.00 0.00 0.00 64 1019.2
20190119113006 53 0 0.0 2.0 0.00 0.00 0.00 64 1019.2
20190119112505 53 0 0.0 2.0 0.00 0.00 0.00 65 1019.3
20190119112005 53 0 0.0 1.0 0.00 0.00 0.00 65 1019.4
20190119111505 53 0 0.0 1.0 0.00 0.00 0.00 65 1019.3
20190119111005 53 0 0.0 0.0 0.00 0.00 0.00 65 1019.5
20190119110504 53 0 0.0 0.0 0.00 0.00 0.00 65 1019.5
20190119110005 53 0 0.0 1.0 0.00 0.00 0.00 65 1019.5
20190119105505 53 0 0.0 1.0 0.00 0.00 0.00 65 1019.5
20190119105005 53 0 0.0 2.0 0.00 0.00 0.00 65 1019.6
20190119104505 53 0 0.0 2.0 0.00 0.00 0.00 65 1019.6
20190119104005 53 0 0.0 1.0 0.00 0.00 0.00 65 1019.7
20190119103508 53 0 0.0 1.0 0.00 0.00 0.00 65 1019.8
20190119103005 53 0 0.0 0.0 0.00 0.00 0.00 65 1019.8
20190119102505 53 0 0.0 0.0 0.00 0.00 0.00 65 1019.8
20190119102005 53 0 0.0 0.0 0.00 0.00 0.00 65 1019.9
20190119101504 53 0 0.0 0.0 0.00 0.00 0.00 64 1019.9
20190119101005 53 0 0.0 1.0 0.00 0.00 0.00 64 1019.9
20190119100505 53 0 0.0 4.0 0.00 0.00 0.00 64 1019.9
20190119100005 53 0 0.0 4.0 0.00 0.00 0.00 64 1019.9
20190119095505 53 0 0.0 1.0 0.00 0.00 0.00 64 1020.0
20190119095005 53 0 0.0 1.0 0.00 0.00 0.00 64 1020.0
20190119094505 53 0 0.0 0.0 0.00 0.00 0.00 64 1020.1
20190119094005 53 0 0.0 0.0 0.00 0.00 0.00 64 1020.0
20190119093505 53 0 0.0 1.0 0.00 0.00 0.00 63 1020.0
20190119093005 53 0 0.0 1.0 0.00 0.00 0.00 63 1020.0
20190119092505 53 0 0.0 1.0 0.00 0.00 0.00 63 1020.0
20190119092005 53 0 0.0 0.0 0.00 0.00 0.00 63 1020.0
20190119091510 53 0 0.0 0.0 0.00 0.00 0.00 62 1020.1
20190119091006 53 0 0.0 0.0 0.00 0.00 0.00 62 1020.1
20190119090506 53 0 0.0 0.0 0.00 0.00 0.00 62 1020.1
20190119090005 54 0 0.0 0.0 0.00 0.00 0.00 61 1020.1
20190119085505 54 0 0.0 0.0 0.00 0.00 0.00 61 1020.1
20190119085005 54 0 0.0 0.0 0.00 0.00 0.00 61 1020.0
20190119084504 54 0 0.0 0.0 0.00 0.00 0.00 60 1020.1
20190119084005 54 0 0.0 0.0 0.00 0.00 0.00 60 1020.0
20190119083506 54 0 0.0 0.0 0.00 0.00 0.00 60 1020.0
20190119083005 54 0 0.0 0.0 0.00 0.00 0.00 60 1020.1
20190119082505 54 0 0.0 0.0 0.00 0.00 0.00 60 1020.1
20190119082005 55 0 0.0 0.0 0.00 0.00 0.00 59 1020.1
20190119081505 55 0 0.0 0.0 0.00 0.00 0.00 59 1020.1
20190119081005 55 207 0.0 5.0 0.00 0.00 0.00 59 1020.1
20190119080505 54 202 1.0 5.0 0.00 0.00 0.00 59 1020.1
20190119080005 54 194 1.0 6.0 0.00 0.00 0.00 59 1020.1
20190119075505 54 202 1.0 6.0 0.00 0.00 0.00 59 1020.2
20190119075005 54 210 1.0 6.0 0.00 0.00 0.00 59 1020.2
20190119074505 55 207 1.0 6.0 0.00 0.00 0.00 58 1020.3
20190119074005 55 194 1.0 8.0 0.00 0.00 0.00 58 1020.3
20190119073505 55 183 0.0 8.0 0.00 0.00 0.00 58 1020.3
20190119073005 55 0 0.0 0.0 0.00 0.00 0.00 58 1020.3
20190119072505 55 0 0.0 0.0 0.00 0.00 0.00 58 1020.3
20190119072005 55 0 0.0 0.0 0.00 0.00 0.00 57 1020.4
20190119071505 55 0 1.0 0.0 0.00 0.00 0.00 57 1020.4
20190119071006 55 207 1.0 6.0 0.00 0.00 0.00 56 1020.5
20190119070505 56 199 1.0 6.0 0.00 0.00 0.00 56 1020.5
20190119070006 56 187 2.0 6.0 0.00 0.00 0.00 57 1020.4
20190119065505 55 200 2.0 8.0 0.00 0.00 0.00 57 1020.7
20190119065006 55 202 1.0 8.0 0.00 0.00 0.00 56 1020.8
20190119064505 56 192 0.0 7.0 0.00 0.00 0.00 56 1020.8
20190119064005 56 0 0.0 0.0 0.00 0.00 0.00 55 1021.0
20190119063508 56 0 0.0 0.0 0.00 0.00 0.00 55 1020.9
20190119063005 55 0 0.0 0.0 0.00 0.00 0.00 55 1021.0
20190119062505 55 0 0.0 0.0 0.00 0.00 0.00 55 1021.1
20190119062005 55 0 0.0 0.0 0.00 0.00 0.00 55 1021.1
20190119061506 55 155 1.0 7.0 0.00 0.00 0.00 54 1021.2
20190119061005 55 197 1.0 7.0 0.00 0.00 0.00 54 1021.3
20190119060505 55 209 1.0 6.0 0.00 0.00 0.00 54 1021.4
20190119060005 56 197 1.0 6.0 0.00 0.00 0.00 53 1021.4
20190119055505 56 196 0.0 5.0 0.00 0.00 0.00 53 1021.3
20190119055005 56 0 0.0 3.0 0.00 0.00 0.00 52 1021.3
20190119054505 56 0 0.0 0.0 0.00 0.00 0.00 52 1021.3
20190119054005 56 0 0.0 6.0 0.00 0.00 0.00 52 1021.3